ECHOSTAR 10

导读

ECHOSTAR 10是美国回声之星(EchoStar)公司运营的一颗地球静止轨道通信卫星,于2006年2月15日发射升空。该卫星属于EchoStar卫星星座,主要承担卫星电视广播业务,为北美地区提供直接到户的卫星电视传输服务,同时支持相关通信传输需求,是EchoStar卫星通信网络中保障高清电视信号稳定覆盖的重要空间节点。

基本信息
目录编号:
28935
目录名称:
ECHOSTAR 10
国际标识:
2006-003A
轨道中心:
EARTH
卫星名称:
ECHOSTAR 10
卫星全名:
--
卫星状态:
在轨 (已飞行7467 天)
发射日期:
2006-02-15 UTC
国别 :
美国 (US)
星等 :
--
轨道信息
数据来源 国际轨道数据 AOE轨道数据
星历时间 2026-07-27T20:16:05+0800
11小时前
查看轨道信息
2026-07-27T19:00:00+0800
12小时前
查看轨道信息
半长轴 42164.672km 42164.616km
偏心率 0.000153 0.0001546
轨道倾角 0.053° 0.055°
近地点辐角 188.520° 185.917°
升交点赤经 278.686° 279.386°
平近点角 271.810° 254.640°
近地点 35780.083km 35779.96km
远地点 35792.987km 35792.998km
周期 1436.094分钟 1436.091分钟
每日圈数 1.00272 1.002722
详细信息
使用方式:
暂无
2D轨道图
3D轨道图
轨道高度分析图
轨道倾角分析图
轨道综合分析图
查看轨道综合分析图